TimeCDT,TemperatureF,Dew PointF,Humidity,Sea Level PressureIn,VisibilityMPH,Wind Direction,Wind SpeedMPH,Gust SpeedMPH,PrecipitationIn,Events,Conditions,WindDirDegrees,DateUTC
12:53 AM,28.9,28.0,96,30.27,10.0,Calm,Calm,-,N/A,,Clear,0,2012-09-27 05:53:00
1:53 AM,28.0,26.1,92,30.28,10.0,Calm,Calm,-,N/A,,Clear,0,2012-09-27 06:53:00
2:53 AM,28.0,25.0,88,30.27,10.0,Calm,Calm,-,N/A,,Clear,0,2012-09-27 07:53:00
3:53 AM,26.1,24.1,92,30.28,10.0,Calm,Calm,-,N/A,,Clear,0,2012-09-27 08:53:00
4:53 AM,25.0,23.0,92,30.30,10.0,Calm,Calm,-,N/A,,Clear,0,2012-09-27 09:53:00
5:53 AM,24.1,21.9,91,30.30,10.0,Calm,Calm,-,N/A,,Clear,0,2012-09-27 10:53:00
6:27 AM,24.8,21.2,86,30.26,2.0,Calm,Calm,-,N/A,,Clear,0,2012-09-27 11:27:00
6:35 AM,24.8,21.2,86,30.26,10.0,Calm,Calm,-,N/A,,Clear,0,2012-09-27 11:35:00
6:53 AM,23.0,21.0,92,30.33,10.0,NW,3.5,-,N/A,,Clear,320,2012-09-27 11:53:00
7:53 AM,26.1,24.1,92,30.33,10.0,Calm,Calm,-,N/A,,Clear,0,2012-09-27 12:53:00
8:53 AM,36.0,32.0,86,30.34,10.0,Calm,Calm,-,N/A,,Clear,0,2012-09-27 13:53:00
9:53 AM,44.1,35.1,71,30.33,10.0,Calm,Calm,-,N/A,,Clear,0,2012-09-27 14:53:00
10:53 AM,52.0,36.0,54,30.31,10.0,Variable,4.6,-,N/A,,Clear,0,2012-09-27 15:53:00
11:53 AM,57.0,35.1,44,30.29,10.0,SW,8.1,-,N/A,,Clear,220,2012-09-27 16:53:00
12:53 PM,61.0,34.0,36,30.27,10.0,Variable,4.6,-,N/A,,Clear,0,2012-09-27 17:53:00
1:53 PM,63.0,33.1,33,30.24,10.0,Variable,4.6,-,N/A,,Clear,0,2012-09-27 18:53:00
2:53 PM,64.0,33.1,31,30.22,10.0,Variable,4.6,-,N/A,,Clear,0,2012-09-27 19:53:00
3:53 PM,64.0,33.1,31,30.22,10.0,NW,5.8,-,N/A,,Clear,310,2012-09-27 20:53:00
4:53 PM,64.0,32.0,30,30.22,10.0,Calm,Calm,-,N/A,,Clear,0,2012-09-27 21:53:00
5:53 PM,62.1,32.0,32,30.22,10.0,West,3.5,-,N/A,,Clear,280,2012-09-27 22:53:00
6:53 PM,48.9,39.9,71,30.22,10.0,Calm,Calm,-,N/A,,Clear,0,2012-09-27 23:53:00
7:53 PM,44.1,37.9,79,30.23,10.0,Calm,Calm,-,N/A,,Clear,0,2012-09-28 00:53:00
8:53 PM,39.9,36.0,86,30.22,10.0,Calm,Calm,-,N/A,,Clear,0,2012-09-28 01:53:00
9:53 PM,37.0,34.0,89,30.22,10.0,Calm,Calm,-,N/A,,Clear,0,2012-09-28 02:53:00
10:53 PM,37.9,35.1,89,30.20,10.0,Calm,Calm,-,N/A,,Clear,0,2012-09-28 03:53:00
11:53 PM,35.1,33.1,92,30.21,10.0,Calm,Calm,-,N/A,,Clear,0,2012-09-28 04:53:00